Tracking 25703 objects as of 3-Jul-2022
HD Live streaming from Space Station
objects crossing your sky now

FLOCK 4P 1

Track FLOCK 4P 1 now!
10-day predictions
FLOCK 4P 1 is classified as:


NORAD ID: 44814
Int'l Code: 2019-081L
Perigee: 484.0 km
Apogee: 499.6 km
Inclination: 97.4 °
Period: 94.3 minutes
Semi major axis: 6862 km
RCS: Unknown
Launch date: November 27, 2019
Source: United States (US)
Launch site: SRIHARIKOTA (SRI)
aabbcc
Your satellite tracking list
Your tracking list is empty




NASA's NSSDC Master Catalog

Two Line Element Set (TLE):
1 44814U 19081L   22183.17926352  .00007955  00000-0  30199-3 0  9992
2 44814  97.4022 248.0860 0011422 155.0605 205.1189 15.27044726144145
Source of the keplerian elements: AFSPC